TimeEDT,TemperatureF,Dew PointF,Humidity,Sea Level PressureIn,VisibilityMPH,Wind Direction,Wind SpeedMPH,Gust SpeedMPH,PrecipitationIn,Events,Conditions,WindDirDegrees,DateUTC
12:53 AM,70.0,69.1,97,29.99,0.2,South,6.9,-,N/A,Fog,Fog,180,2013-07-19 04:53:00
1:53 AM,71.1,70.0,96,29.97,0.2,SSW,8.1,-,N/A,Fog,Fog,200,2013-07-19 05:53:00
2:53 AM,71.1,71.1,100,29.96,0.2,SSW,8.1,-,N/A,Fog,Fog,210,2013-07-19 06:53:00
3:53 AM,72.0,72.0,100,29.95,0.2,SW,9.2,-,N/A,Fog,Fog,220,2013-07-19 07:53:00
4:53 AM,72.0,71.1,97,29.95,0.2,SW,8.1,-,N/A,Fog,Fog,230,2013-07-19 08:53:00
5:01 AM,71.6,71.6,100,29.95,0.5,SW,8.1,-,N/A,Fog,Fog,230,2013-07-19 09:01:00
5:25 AM,71.6,71.6,100,29.95,1.0,SW,8.1,-,N/A,,Overcast,230,2013-07-19 09:25:00
5:36 AM,71.6,71.6,100,29.95,0.5,SW,9.2,-,N/A,Fog,Fog,220,2013-07-19 09:36:00
5:53 AM,72.0,71.1,97,29.95,0.2,SW,8.1,-,N/A,Fog,Fog,220,2013-07-19 09:53:00
6:25 AM,71.6,71.6,100,29.95,0.8,SW,9.2,-,N/A,,Mist,230,2013-07-19 10:25:00
6:53 AM,72.0,71.1,97,29.94,0.8,SW,8.1,-,N/A,,Mist,220,2013-07-19 10:53:00
7:53 AM,73.0,72.0,96,29.95,2.0,SW,9.2,-,N/A,,Mostly Cloudy,230,2013-07-19 11:53:00
8:30 AM,73.4,71.6,94,29.95,5.0,SW,11.5,-,N/A,,Scattered Clouds,230,2013-07-19 12:30:00
8:53 AM,73.9,72.0,93,29.94,5.0,SW,12.7,-,N/A,,Partly Cloudy,230,2013-07-19 12:53:00
9:53 AM,77.0,72.0,84,29.93,5.0,SW,11.5,-,N/A,,Haze,230,2013-07-19 13:53:00
10:53 AM,79.0,73.0,82,29.93,5.0,SW,17.3,23.0,N/A,,Haze,230,2013-07-19 14:53:00
11:53 AM,79.0,73.0,82,29.93,5.0,SW,15.0,-,N/A,,Haze,230,2013-07-19 15:53:00
12:53 PM,79.0,73.0,82,29.92,5.0,SW,16.1,19.6,N/A,,Haze,230,2013-07-19 16:53:00
1:53 PM,79.0,73.0,82,29.89,5.0,SW,15.0,-,N/A,,Haze,220,2013-07-19 17:53:00
2:53 PM,78.1,73.0,84,29.88,5.0,SW,13.8,-,N/A,,Haze,220,2013-07-19 18:53:00
3:20 PM,78.8,73.4,83,29.87,5.0,SSW,13.8,-,N/A,,Haze,210,2013-07-19 19:20:00
3:53 PM,78.1,73.0,84,29.86,5.0,SSW,17.3,23.0,N/A,,Haze,210,2013-07-19 19:53:00
4:53 PM,77.0,72.0,84,29.84,5.0,SW,17.3,25.3,N/A,,Haze,220,2013-07-19 20:53:00
5:53 PM,75.0,72.0,90,29.82,4.0,SW,18.4,-,N/A,,Clear,220,2013-07-19 21:53:00
6:53 PM,73.9,72.0,93,29.82,3.0,SW,15.0,-,N/A,,Clear,220,2013-07-19 22:53:00
7:06 PM,73.4,71.6,94,29.83,3.0,SW,15.0,-,N/A,,Scattered Clouds,220,2013-07-19 23:06:00
7:16 PM,73.4,71.6,94,29.82,2.5,SSW,15.0,-,N/A,,Mostly Cloudy,210,2013-07-19 23:16:00
7:36 PM,73.4,71.6,94,29.82,2.0,SW,12.7,-,N/A,,Mostly Cloudy,220,2013-07-19 23:36:00
7:53 PM,73.0,71.1,93,29.83,2.0,SW,12.7,-,N/A,,Overcast,220,2013-07-19 23:53:00
8:08 PM,71.6,71.6,100,29.83,1.8,SW,12.7,-,N/A,,Overcast,220,2013-07-20 00:08:00
8:24 PM,71.6,71.6,100,29.83,2.0,SW,13.8,-,N/A,,Overcast,220,2013-07-20 00:24:00
8:39 PM,71.6,71.6,100,29.84,3.0,SW,12.7,-,N/A,,Mostly Cloudy,220,2013-07-20 00:39:00
8:44 PM,71.6,71.6,100,29.84,2.5,SSW,12.7,-,N/A,,Mostly Cloudy,210,2013-07-20 00:44:00
8:53 PM,72.0,71.1,97,29.84,2.5,SW,13.8,-,N/A,,Mostly Cloudy,220,2013-07-20 00:53:00
9:22 PM,71.6,71.6,100,29.85,2.5,SW,13.8,-,N/A,,Scattered Clouds,220,2013-07-20 01:22:00
9:28 PM,71.6,71.6,100,29.85,3.0,SW,12.7,-,N/A,,Scattered Clouds,220,2013-07-20 01:28:00
9:53 PM,73.0,71.1,93,29.86,3.0,SW,13.8,-,N/A,,Scattered Clouds,220,2013-07-20 01:53:00
10:53 PM,72.0,71.1,97,29.85,3.0,SW,12.7,-,N/A,,Clear,220,2013-07-20 02:53:00
11:53 PM,72.0,71.1,97,29.83,3.0,SSW,12.7,-,N/A,,Clear,210,2013-07-20 03:53:00